EW5449 Weather Reports


Display with metric or nautical units.
time (UTC)temp
F
wind
direction
speed
MPH
gust
MPH
rain 1hr
in
rain 24hr
in
rain mn
in
humidity
%
barometer
mb
20260506211548 69 342 0.0 2.0 0.00 0.11 0.11 75 1006.3
20260506210055 70 345 0.0 3.0 0.00 0.11 0.11 73 1006.2
20260506204550 71 328 0.0 2.0 0.00 0.11 0.11 72 1006.0
20260506203046 72 324 0.0 3.0 0.00 0.11 0.11 68 1005.7
20260506201546 72 166 0.0 2.0 0.00 0.11 0.11 69 1005.6
20260506200049 73 106 0.0 2.0 0.00 0.11 0.11 68 1005.7
20260506194544 74 111 0.0 2.0 0.00 0.11 0.11 67 1005.7
20260506193045 73 116 0.0 3.0 0.00 0.11 0.11 69 1005.7
20260506191540 72 163 0.0 3.0 0.00 0.11 0.11 65 1005.8
20260506190039 72 213 1.0 4.0 0.00 0.11 0.11 65 1006.1
20260506184544 72 203 1.0 4.0 0.00 0.11 0.11 65 1006.0
20260506183037 73 186 0.0 4.0 0.00 0.11 0.11 65 1006.0
20260506181540 72 167 1.0 4.0 0.00 0.11 0.11 66 1006.2
20260506180033 71 162 1.0 4.0 0.00 0.11 0.11 67 1006.2
20260506174534 71 180 1.0 4.0 0.00 0.11 0.11 67 1006.2
20260506173129 70 176 1.0 3.0 0.00 0.11 0.11 68 1006.4
20260506171533 69 146 1.0 8.0 0.00 0.11 0.11 69 1006.5
20260506170031 69 186 2.0 7.0 0.00 0.11 0.11 69 1006.5
20260506164544 69 224 1.0 5.0 0.00 0.11 0.11 70 1006.5
20260506163026 69 96 3.0 8.0 0.00 0.11 0.11 70 1006.6
20260506161526 68 282 1.0 5.0 0.00 0.11 0.11 73 1006.7
20260506160027 67 164 2.0 8.0 0.00 0.11 0.11 75 1006.7
20260506154524 66 222 2.0 7.0 0.00 0.11 0.11 77 1006.7
20260506153025 64 226 2.0 7.0 0.00 0.11 0.11 81 1006.7
20260506151524 64 179 1.0 8.0 0.00 0.11 0.11 84 1006.7
20260506150023 63 190 0.0 2.0 0.00 0.11 0.11 90 1006.6
20260506144527 62 142 1.0 3.0 0.01 0.11 0.11 90 1007.0
20260506143024 61 97 0.0 3.0 0.01 0.11 0.11 91 1007.2
20260506141529 60 125 0.0 2.0 0.01 0.11 0.11 91 1006.8
20260506140020 60 126 0.0 2.0 0.01 0.11 0.11 90 1007.3
20260506134520 60 155 0.0 2.0 0.01 0.10 0.10 90 1007.5
20260506133020 60 135 0.0 2.0 0.02 0.10 0.10 90 1007.5
20260506131521 60 122 0.0 2.0 0.04 0.10 0.10 90 1007.3
20260506130017 60 128 0.0 2.0 0.06 0.10 0.10 90 1007.2
20260506124515 60 128 0.0 2.0 0.05 0.09 0.09 88 1007.5
20260506123015 60 163 0.0 2.0 0.06 0.08 0.08 87 1007.7
20260506121515 60 128 0.0 2.0 0.06 0.06 0.06 85 1007.4
20260506120025 60 117 0.0 2.0 0.04 0.04 0.04 84 1007.5
20260506114508 61 117 0.0 2.0 0.04 0.04 0.04 81 1007.5
20260506113006 62 117 0.0 2.0 0.02 0.02 0.02 76 1007.7
20260506111502 63 117 0.0 0.0 0.00 0.00 0.00 72 1007.6
20260506110114 63 117 0.0 1.0 0.00 0.00 0.00 70 1007.2
20260506104613 64 117 0.0 0.0 0.00 0.00 0.00 67 1007.0
20260506103056 64 115 0.0 2.0 0.00 0.00 0.00 63 1006.9
20260506101555 64 117 0.0 2.0 0.00 0.00 0.00 61 1006.8
20260506094600 65 114 0.0 2.0 0.00 0.00 0.00 59 1006.3
20260506093051 65 121 0.0 3.0 0.00 0.00 0.00 58 1006.4
20260506091549 65 121 0.0 4.0 0.00 0.00 0.00 57 1006.5
20260506090048 65 118 0.0 2.0 0.00 0.00 0.00 56 1006.6
20260506084615 65 121 0.0 2.0 0.00 0.00 0.00 56 1006.8
20260506083045 65 111 0.0 2.0 0.00 0.00 0.00 55 1006.8
20260506081553 65 119 0.0 2.0 0.00 0.00 0.00 55 1006.8
20260506073040 66 119 0.0 2.0 0.00 0.00 0.00 53 1006.9
20260506071538 66 121 0.0 2.0 0.00 0.00 0.00 51 1006.9
20260506061528 68 133 0.0 2.0 0.00 0.00 0.00 47 1007.8
20260506044518 69 175 0.0 2.0 0.00 0.00 0.00 43 1008.5
20260506043011 70 207 0.0 2.0 0.00 0.00 0.00 42 1008.5
20260506041610 70 114 0.0 2.0 0.00 0.00 0.00 41 1008.5
20260506040007 71 209 0.0 2.0 0.00 0.00 0.00 40 1008.6
20260506034506 71 178 0.0 3.0 0.00 0.00 0.00 40 1008.5
20260506033007 71 202 0.0 3.0 0.00 0.00 0.00 40 1008.5
20260506031505 71 198 0.0 2.0 0.00 0.00 0.00 39 1008.5
20260506030004 71 176 0.0 2.0 0.00 0.00 0.00 38 1008.5
20260506024503 71 182 0.0 2.0 0.00 0.00 0.00 38 1008.5
20260506023003 71 180 0.0 2.0 0.00 0.00 0.00 37 1008.6
20260506021503 72 184 0.0 3.0 0.00 0.00 0.00 36 1008.7
20260506020003 72 139 0.0 2.0 0.00 0.00 0.00 36 1008.5
20260506014501 72 181 0.0 2.0 0.00 0.00 0.00 35 1008.6
20260506013001 72 196 0.0 2.0 0.00 0.00 0.00 35 1008.5
20260506011500 73 199 0.0 3.0 0.00 0.00 0.00 34 1008.3
20260506004559 74 180 0.0 2.0 0.00 0.00 0.00 33 1008.0
20260506003059 74 157 0.0 2.0 0.00 0.00 0.00 33 1007.8
20260506001559 76 120 0.0 2.0 0.00 0.00 0.00 32 1007.6
20260506000100 77 150 0.0 5.0 0.00 0.00 0.00 31 1007.5
20260505234557 78 197 0.0 2.0 0.00 0.00 0.00 31 1007.3
20260505233104 78 260 1.0 8.0 0.00 0.00 0.00 30 1007.2
20260505231609 79 155 1.0 5.0 0.00 0.00 0.00 30 1007.3
20260505230055 80 177 1.0 6.0 0.00 0.00 0.00 30 1007.1
20260505224557 80 173 2.0 5.0 0.00 0.00 0.00 30 1007.1
20260505223057 80 203 2.0 6.0 0.00 0.00 0.00 29 1007.3
20260505221559 81 117 1.0 8.0 0.00 0.00 0.00 27 1007.3
20260505220059 81 99 2.0 6.0 0.00 0.00 0.00 26 1007.2
20260505214557 81 234 5.0 11.0 0.00 0.00 0.00 25 1007.3
20260505213052 81 206 2.0 8.0 0.00 0.00 0.00 24 1007.2